Volver al catálogo

SCOUT B DEB

LostUNKNOWN
NORAD 29174·DEBRIS·🇺🇸 United States

Lanzado Aug 10, 1965 desde Wallops Flight Facility

Loading…

Próximos Pases (próximas 24 horas)

TLE

ObsoletoSource: Space-Track

Época: Jul 23, 2025, 21:00 UTC

1 29174U 65063Y   25204.87547565  .00000036  00000-0  46677-3 0  9995
2 29174  69.2717 283.5078 0662078 107.2191 260.2334 11.96491823 30580

Sigue SCOUT B DEB en tiempo real con AllMySat

Download on the App Store